Probability
10 16 32 32 39 42 42 45 48 48 48 48 45 48 42 35 35 35 29 35 39 39 32 39 29 26 29 19 19 19 19 16 13 16 13 6 3 3 3 6 6 6 6
10 16 35 32 35 39 39 45 45 45 45 45 45 42 42 42 39 39 39 39 35 35 35 32 32 23 26 16 16 19 16 13 10 10 10 6 3 3 3 6 6 6 6
13 19 26 29 35 35 39 39 39 42 42 39 39 42 45 45 42 39 48 45 42 39 35 35 32 23 19 19 19 13 13 10 13 6 3 0 3 3 3 6 6 6 6
13 23 23 32 32 35 35 35 39 39 39 39 42 39 42 48 48 45 48 45 45 42 35 32 26 23 19 16 10 13 10 10 10 6 3 3 0 0 3 6 6 6 6
19 23 26 32 29 29 32 32 32 32 35 42 39 39 35 42 45 45 48 45 42 39 32 23 23 19 19 10 10 6 10 10 6 3 3 3 3 6 6 10 6 6 6
19 23 26 35 26 26 29 32 35 29 32 35 32 35 35 39 42 45 45 42 39 32 26 23 23 19 6 10 6 6 3 6 0 3 3 3 3 6 10 10 6 6 0
19 23 19 32 32 29 26 26 32 32 32 29 29 32 32 39 32 42 42 39 39 26 26 23 19 13 10 6 6 6 0 3 6 3 3 3 6 6 10 10 10 6 0
19 19 23 26 29 26 23 23 26 26 39 35 29 29 32 26 26 32 35 35 32 26 19 19 13 10 10 6 3 0 0 0 0 3 3 6 6 6 10 10 10 0 0
19 19 19 23 23 23 19 19 23 29 29 32 32 26 26 26 26 23 29 26 26 29 23 19 16 13 6 6 3 0 0 0 0 0 3 6 6 10 10 10 3 3 0
19 19 26 19 19 23 23 16 16 19 19 23 16 16 13 13 16 23 23 16 16 19 16 16 16 13 6 0 0 0 0 0 0 0 0 6 6 6 10 10 3 3 0
16 19 16 19 19 19 19 13 16 10 10 10 10 3 6 13 13 10 6 6 10 6 13 16 13 10 3 0 0 0 0 0 0 0 0 0 10 6 6 3 3 3 0
10 16 16 19 19 13 13 16 23 19 13 10 10 13 16 16 13 6 3 3 6 6 6 10 13 3 0 0 0 0 0 0 0 0 0 3 10 0 0 3 3 3 3
3 13 13 16 16 13 13 19 19 19 16 13 10 10 13 6 10 6 3 6 6 3 6 6 6 3 3 3 0 0 0 0 0 0 0 3 6 0 0 3 3 3 3
3 6 6 10 13 10 10 16 16 13 13 13 10 13 10 10 6 6 3 6 6 6 6 6 6 3 3 3 0 0 0 0 0 0 0 0 0 3 0 0 3 0 0
3 3 6 6 10 10 10 13 13 10 13 13 10 10 13 10 6 0 0 3 6 6 6 3 3 3 3 3 0 0 0 0 0 0 0 0 0 0 0 0 3 0 0
3 3 3 6 10 6 6 10 13 13 13 10 10 10 6 3 3 0 0 0 3 6 3 3 3 3 3 3 0 0 0 0 0 0 0 0 0 0 0 0 0 3 0
3 3 3 3 6 6 6 10 13 13 16 13 6 6 3 3 3 0 0 0 0 3 3 3 3 3 3 3 0 0 0 0 0 0 0 0 0 0 0 0 0 0 3
3 3 3 0 0 0 6 10 6 6 13 6 6 6 3 3 3 0 0 0 0 0 3 3 3 3 3 3 0 0 0 0 0 0 0 0 0 0 0 0 0 0 3
3 3 3 3 0 0 3 6 6 6 6 6 3 3 3 3 3 3 3 3 3 3 3 3 3 3 3 3 0 0 0 0 0 0 0 0 0 0 0 0 0 0 0
3 3 3 3 3 0 0 3 3 3 3 3 6 3 3 3 3 3 3 3 3 3 3 3 0 0 0 3 0 0 0 0 0 0 0 0 0 0 0 0 0 0 0
3 3 3 3 3 3 0 0 0 3 3 3 3 3 3 0 3 3 3 3 3 3 3 3 0 0 0 0 0 0 0 0 0 0 0 0 0 0 0 0 0 0 0
3 3 3 3 3 3 3 0 0 0 3 3 3 3 3 0 3 0 6 3 3 3 3 0 0 0 0 0 0 0 0 0 0 0 0 0 0 0 0 0 0 0 0
3 3 3 3 3 3 3 3 0 0 3 0 0 0 0 3 3 3 3 6 3 3 3 3 0 0 0 0 0 0 0 0 0 0 0 0 0 0 0 0 0 0 0
0 3 3 3 3 3 3 3 3 0 0 0 0 0 0 0 3 3 3 3 3 3 3 0 0 0 0 0 0 0 0 0 0 0 0 0 0 0 0 0 0 0 0
0 0 3 3 3 3 3 3 3 3 0 0 3 0 3 3 0 3 3 3 3 3 3 0 0 0 0 0 0 0 0 0 0 0 0 0 0 0 0 0 0 0 0
0 0 0 3 3 3 3 3 3 3 3 3 3 3 3 3 3 3 3 3 3 3 3 0 0 0 0 0 0 0 0 0 0 0 0 0 0 0 0 0 0 0 0
Height
5849 5850 5850 5851 5852 5853 5853 5854 5855 5855 5856 5857 5857 5858 5859 5859 5860 5860 5860 5860 5861 5861 5861 5861 5861 5861 5861 5861 5861 5861 5860 5860 5860 5859 5859 5858 5858 5857 5857 5856 5855 5855 5854
5846 5847 5848 5849 5849 5850 5851 5852 5852 5853 5854 5854 5855 5856 5857 5857 5858 5858 5858 5858 5859 5859 5859 5859 5859 5859 5859 5859 5859 5859 5859 5858 5858 5858 5857 5856 5856 5855 5855 5854 5853 5853 5852
5843 5844 5845 5846 5847 5847 5848 5849 5850 5850 5851 5852 5853 5854 5854 5855 5855 5856 5856 5856 5857 5857 5857 5857 5857 5857 5857 5857 5857 5856 5856 5856 5856 5855 5855 5854 5853 5853 5852 5852 5851 5850 5850
5840 5841 5842 5842 5843 5844 5845 5846 5847 5848 5848 5849 5850 5851 5851 5852 5853 5853 5853 5854 5854 5854 5854 5854 5855 5854 5855 5855 5854 5854 5854 5853 5853 5853 5852 5852 5851 5850 5850 5849 5848 5848 5847
5836 5837 5838 5839 5840 5841 5842 5843 5844 5844 5845 5846 5847 5847 5848 5849 5849 5850 5850 5851 5851 5851 5852 5852 5852 5852 5852 5852 5852 5851 5851 5851 5850 5850 5849 5849 5848 5847 5847 5846 5846 5845 5844
5831 5832 5833 5834 5835 5837 5838 5838 5840 5841 5842 5842 5843 5844 5845 5845 5846 5846 5847 5848 5848 5848 5848 5849 5849 5849 5849 5848 5848 5848 5848 5847 5847 5847 5846 5845 5845 5844 5844 5843 5842 5841 5841
5826 5827 5828 5830 5831 5832 5833 5834 5835 5836 5837 5838 5839 5840 5841 5841 5842 5843 5843 5844 5844 5845 5845 5845 5845 5845 5845 5845 5845 5844 5844 5844 5843 5843 5842 5842 5841 5841 5840 5839 5838 5838 5837
5821 5822 5823 5824 5825 5826 5827 5829 5830 5831 5833 5834 5835 5835 5837 5837 5838 5838 5839 5840 5840 5841 5841 5841 5841 5841 5841 5841 5840 5840 5840 5840 5839 5839 5838 5838 5837 5837 5836 5835 5834 5834 5833
5815 5816 5816 5817 5819 5820 5821 5823 5825 5826 5827 5828 5830 5831 5832 5833 5833 5834 5834 5835 5835 5836 5836 5836 5836 5836 5836 5836 5836 5835 5835 5835 5835 5834 5834 5833 5833 5832 5832 5831 5830 5830 5829
5808 5809 5810 5812 5813 5814 5816 5817 5818 5820 5821 5823 5824 5825 5826 5827 5828 5829 5829 5829 5830 5831 5831 5831 5831 5831 5831 5831 5830 5830 5830 5830 5829 5829 5829 5828 5828 5827 5826 5826 5825 5825 5824
5802 5803 5805 5806 5807 5809 5810 5811 5812 5814 5815 5817 5818 5820 5821 5822 5822 5823 5824 5824 5825 5825 5825 5825 5825 5826 5825 5825 5825 5824 5824 5824 5824 5824 5823 5823 5822 5822 5821 5820 5820 5819 5818
5795 5797 5798 5800 5801 5802 5804 5805 5806 5807 5809 5810 5812 5814 5815 5816 5817 5818 5818 5818 5819 5819 5819 5819 5819 5819 5819 5819 5819 5819 5819 5819 5818 5818 5818 5817 5817 5816 5816 5815 5814 5813 5813
5788 5790 5791 5793 5795 5796 5797 5799 5800 5801 5802 5804 5805 5807 5808 5809 5810 5811 5812 5812 5812 5812 5813 5813 5813 5812 5812 5812 5813 5812 5812 5812 5812 5812 5812 5811 5811 5810 5810 5809 5809 5808 5807
5781 5783 5785 5786 5787 5789 5790 5792 5793 5794 5796 5797 5798 5800 5801 5802 5804 5804 5805 5805 5805 5806 5806 5806 5806 5806 5806 5806 5806 5806 5806 5806 5805 5805 5805 5805 5805 5805 5804 5803 5803 5802 5801
5773 5775 5777 5778 5780 5781 5782 5784 5786 5787 5789 5790 5791 5793 5794 5795 5796 5797 5798 5798 5798 5798 5799 5799 5799 5799 5799 5799 5799 5799 5799 5799 5799 5799 5799 5799 5798 5798 5798 5797 5796 5796 5795
5765 5767 5769 5771 5772 5773 5774 5776 5778 5780 5781 5782 5784 5785 5786 5787 5788 5789 5790 5790 5791 5791 5792 5792 5792 5792 5792 5792 5792 5792 5791 5791 5792 5792 5792 5792 5792 5791 5791 5790 5790 5790 5789
5756 5758 5760 5762 5764 5765 5766 5768 5770 5771 5773 5774 5775 5777 5778 5779 5780 5781 5782 5783 5783 5783 5784 5784 5784 5784 5784 5784 5784 5784 5783 5784 5784 5785 5785 5785 5785 5784 5784 5783 5783 5783 5783
5747 5749 5752 5753 5755 5756 5758 5759 5761 5763 5764 5765 5767 5768 5769 5770 5771 5773 5774 5775 5776 5776 5776 5776 5776 5776 5776 5776 5776 5776 5776 5776 5776 5777 5777 5777 5777 5777 5776 5776 5776 5776 5775
5738 5740 5742 5744 5746 5747 5749 5750 5752 5753 5755 5756 5757 5759 5760 5761 5763 5764 5765 5766 5767 5768 5768 5768 5768 5768 5767 5768 5768 5768 5768 5768 5769 5769 5769 5769 5769 5769 5769 5768 5768 5768 5768
5728 5730 5732 5734 5735 5737 5739 5740 5742 5743 5745 5746 5747 5749 5750 5751 5753 5755 5756 5758 5759 5759 5759 5759 5759 5759 5760 5760 5760 5760 5760 5760 5761 5761 5761 5761 5761 5761 5761 5760 5760 5760 5760
5718 5720 5722 5724 5725 5726 5728 5730 5731 5733 5735 5736 5737 5739 5740 5742 5743 5745 5746 5748 5749 5750 5751 5751 5751 5751 5751 5751 5752 5752 5752 5752 5752 5753 5753 5753 5753 5753 5753 5752 5752 5752 5752
5707 5709 5711 5712 5714 5716 5717 5719 5720 5722 5724 5725 5727 5728 5730 5731 5733 5735 5736 5738 5739 5740 5741 5742 5743 5743 5743 5743 5743 5743 5743 5744 5744 5744 5744 5745 5745 5745 5745 5744 5744 5744 5744
5697 5698 5700 5701 5703 5705 5706 5708 5709 5711 5713 5714 5716 5718 5719 5721 5723 5724 5727 5728 5730 5731 5733 5733 5734 5734 5735 5735 5735 5735 5735 5735 5736 5736 5736 5737 5737 5736 5736 5736 5736 5736 5736
5686 5687 5689 5690 5692 5693 5695 5697 5698 5699 5701 5703 5705 5707 5708 5710 5712 5714 5716 5718 5720 5722 5723 5724 5725 5725 5726 5727 5727 5727 5727 5727 5727 5728 5729 5728 5728 5728 5728 5728 5728 5728 5728
5676 5677 5678 5679 5681 5682 5683 5685 5686 5688 5690 5692 5694 5695 5697 5699 5701 5703 5706 5708 5710 5712 5713 5715 5716 5717 5718 5718 5718 5719 5718 5718 5718 5718 5719 5720 5719 5720 5720 5720 5720 5720 5720
5666 5667 5667 5668 5669 5670 5671 5673 5675 5676 5678 5681 5682 5684 5686 5689 5691 5693 5696 5698 5700 5702 5704 5705 5706 5708 5709 5709 5710 5709 5709 5709 5709 5709 5710 5710 5711 5711 5711 5711 5711 5711 5711
Wind_Speed
14 14 14 14 13 13 12 12 12 11 11 11 11 11 11 10 10 9 9 9 8 8 8 8 8 8 9 9 9 9 9 9 9 10 10 10 10 10 11 11 11 11 12
15 15 15 15 15 14 14 14 13 12 13 12 13 13 12 11 10 10 10 10 10 10 10 9 10 10 10 10 10 10 10 10 11 11 11 11 11 12 12 12 12 13 13
17 16 16 16 16 15 15 15 15 14 14 14 14 14 14 13 12 12 12 11 11 11 11 11 11 11 11 11 11 12 12 12 12 13 13 13 13 13 13 14 14 14 14
18 18 17 17 17 17 17 17 16 16 16 16 15 15 15 15 14 14 13 13 13 12 12 12 12 12 12 12 13 13 13 14 14 14 15 15 14 14 15 15 15 15 15
20 19 19 19 19 18 18 18 17 17 17 18 17 17 17 17 16 16 16 15 14 14 14 14 14 14 14 14 14 14 14 15 15 16 16 16 16 16 16 17 17 17 17
21 21 21 20 20 20 20 19 19 18 19 19 19 19 18 18 17 17 17 17 16 16 16 16 16 16 16 16 16 16 16 16 17 17 17 17 17 17 17 18 18 18 18
23 23 23 22 22 22 22 22 21 20 20 20 20 20 20 20 19 19 18 18 18 18 18 18 18 18 18 18 18 18 18 18 18 18 18 18 18 19 19 19 19 19 19
25 25 24 24 24 24 24 24 23 22 22 22 22 22 22 22 21 21 21 21 20 20 20 20 20 20 20 20 21 21 20 20 20 20 20 20 20 20 20 20 20 20 20
27 27 25 25 25 25 25 25 25 24 24 24 24 24 23 23 24 23 23 23 23 23 23 23 22 22 22 22 22 22 22 21 21 21 21 21 21 21 21 22 21 21 21
29 28 27 26 26 26 26 26 26 26 26 26 25 25 26 25 25 26 25 25 25 25 25 24 24 24 24 24 23 23 23 23 22 22 22 22 22 22 23 23 23 23 23
30 30 29 28 28 27 28 28 27 27 27 27 27 27 27 26 26 27 26 26 27 27 27 26 26 26 26 26 25 25 25 24 24 24 24 24 24 24 24 24 24 24 24
31 31 30 29 29 28 28 29 28 29 29 29 29 28 29 28 28 28 28 28 28 28 28 28 28 28 27 27 26 26 26 26 26 26 25 25 25 25 25 25 25 25 24
33 33 32 31 31 30 30 30 30 30 31 30 30 30 30 30 30 29 30 29 29 29 29 29 29 29 28 29 28 27 27 27 27 27 27 26 26 26 26 26 26 25 25
34 34 34 33 33 33 32 31 31 31 32 32 31 32 32 32 32 31 32 31 30 31 30 29 29 30 30 29 29 29 29 29 28 28 28 27 27 27 27 27 26 26 26
36 35 35 35 35 34 34 33 33 33 34 34 34 33 34 34 34 33 33 32 31 31 31 30 30 31 31 30 30 30 30 30 29 29 28 28 28 27 27 27 27 27 27
37 37 37 37 36 37 36 36 35 36 36 36 36 35 35 35 34 34 34 33 32 31 31 31 32 32 32 31 31 31 31 31 31 30 29 29 29 28 28 28 28 28 29
39 39 38 38 38 38 37 37 37 37 38 38 37 37 36 36 35 35 34 33 32 32 32 33 33 33 33 32 31 31 32 32 32 32 31 30 30 30 29 30 29 29 30
40 40 40 39 40 39 39 39 38 38 38 39 39 38 38 37 36 36 36 35 34 34 34 33 33 33 33 33 32 32 33 32 33 33 32 32 32 32 31 30 30 30 31
41 41 41 40 40 41 40 40 39 39 39 40 40 40 39 38 37 37 37 36 36 35 35 34 34 34 33 33 34 33 33 34 33 33 33 33 32 32 31 31 31 30 31
41 42 41 41 41 42 41 41 41 40 40 41 41 40 40 39 38 39 38 38 37 36 35 35 34 33 33 34 34 33 34 34 34 34 33 33 34 34 33 32 31 31 31
40 41 42 42 42 42 42 42 42 42 41 41 42 41 41 41 40 40 39 39 37 36 35 35 34 33 33 34 34 34 34 35 35 35 34 33 33 33 33 32 32 31 31
40 41 42 43 43 42 42 42 42 42 42 42 42 43 43 42 41 40 40 39 38 37 36 36 35 34 34 34 35 35 35 34 34 35 35 34 33 33 32 32 32 32 31
40 41 42 43 42 42 41 42 43 43 42 43 43 43 43 43 42 41 40 40 39 39 37 37 36 35 35 35 35 35 34 34 34 35 35 35 34 32 32 32 32 32 32
38 40 41 41 41 42 42 42 44 43 43 43 44 43 43 43 43 42 40 39 39 40 39 37 38 37 37 36 35 35 34 34 35 35 34 34 34 33 33 33 32 32 32
38 39 40 40 41 41 41 41 43 43 43 43 44 44 43 43 43 42 42 41 40 40 40 40 39 39 38 37 37 36 35 35 35 35 35 35 34 33 33 33 33 33 33
37 38 39 40 41 41 41 42 43 43 43 44 45 45 44 44 43 43 42 42 41 41 40 39 40 40 40 39 38 38 37 36 36 36 35 34 35 35 34 34 34 34 35
Wind_Direction
240 241 241 239 239 237 237 239 238 238 237 237 236 235 234 235 238 241 243 244 246 249 252 255 259 260 260 261 260 262 266 270 272 273 275 276 277 278 280 282 282 285 287
244 244 243 242 240 239 239 242 240 239 237 237 237 238 236 237 240 243 244 245 247 251 253 255 257 262 260 261 262 263 267 270 272 273 274 276 276 278 279 280 282 285 288
247 247 247 244 242 241 241 243 242 241 241 239 239 241 239 240 242 245 246 246 248 252 255 257 258 261 261 263 267 268 268 271 272 273 274 276 278 279 279 279 282 284 285
248 248 248 247 245 244 244 245 245 243 243 242 242 243 244 243 244 246 248 249 251 253 256 258 259 262 263 265 268 269 271 271 272 273 274 276 277 277 277 278 282 283 283
249 249 249 249 248 248 247 247 248 247 245 246 245 247 248 247 246 248 250 251 253 255 257 259 261 263 266 268 270 271 271 271 272 273 275 276 276 275 276 278 280 282 282
250 250 251 251 251 251 250 250 250 249 249 248 247 248 250 251 250 252 252 254 254 256 259 262 264 264 266 270 271 271 271 271 272 273 274 275 275 275 277 279 281 281 281
251 252 253 253 254 253 253 252 251 251 251 249 249 250 251 252 252 253 255 256 257 258 260 264 264 265 267 270 271 272 272 272 273 273 274 274 274 274 276 279 282 282 281
252 253 254 255 255 255 254 253 252 253 252 251 251 251 252 253 255 254 256 258 260 261 263 265 266 266 268 270 272 273 272 273 274 274 273 273 274 275 276 278 278 280 280
253 255 255 256 255 255 255 255 253 252 252 252 251 252 254 255 257 258 258 260 261 263 264 265 266 267 268 270 272 272 272 272 273 273 273 274 275 275 276 277 277 279 280
252 254 254 254 254 254 255 255 254 253 252 252 252 253 255 256 259 261 261 262 262 264 265 266 266 267 268 270 272 271 271 271 271 272 272 273 274 275 276 277 277 279 280
251 252 253 253 253 254 255 255 253 254 253 252 252 253 256 257 259 261 263 263 263 265 266 267 267 268 269 270 271 270 269 269 270 271 271 272 273 274 276 277 277 279 280
251 251 252 253 253 254 255 256 254 253 253 252 252 252 254 257 259 260 263 263 263 264 265 267 267 267 268 269 270 269 268 268 268 269 269 271 271 272 274 276 278 278 279
251 250 251 253 252 253 255 256 255 254 254 253 253 253 254 256 259 260 262 264 264 264 265 265 266 266 268 268 269 269 268 267 266 268 269 270 270 271 272 275 277 277 277
251 250 251 253 253 254 255 255 255 254 253 252 253 255 255 256 258 260 262 265 265 264 264 265 266 266 267 269 269 270 268 266 267 268 268 268 268 271 272 274 275 276 276
251 250 251 253 254 254 254 254 254 254 253 253 253 255 256 256 259 260 262 263 264 263 263 264 265 266 267 268 269 269 267 266 267 267 268 267 268 270 271 272 273 275 275
250 250 251 253 254 254 254 254 254 255 255 255 255 255 256 257 258 260 260 261 262 262 264 264 265 266 266 267 267 267 267 266 265 265 267 268 267 269 271 271 271 272 274
251 250 252 253 254 255 254 254 256 256 255 255 256 257 257 257 257 258 258 259 260 262 263 264 265 265 265 265 266 266 266 264 264 264 265 267 267 267 270 270 269 271 272
251 251 251 253 254 255 255 255 256 256 256 255 256 257 258 257 256 257 257 258 260 262 263 264 265 264 264 264 264 265 264 263 263 264 264 265 267 269 270 270 270 271 272
252 251 250 252 254 254 255 256 256 257 257 256 256 257 257 257 256 256 256 258 260 262 263 265 264 264 264 264 264 264 263 262 263 262 263 265 267 270 271 271 271 272 272
252 251 251 251 254 254 254 255 256 257 257 257 256 256 257 257 256 256 256 257 260 262 263 264 264 262 263 264 265 265 264 263 261 261 263 266 268 270 272 274 272 271 271
253 252 252 253 254 255 254 255 256 256 257 257 257 256 256 256 256 256 256 257 259 261 263 264 263 262 263 264 265 265 265 264 261 262 264 266 269 271 272 273 272 270 269
255 254 253 253 253 255 255 254 256 256 257 257 257 255 255 256 256 256 255 256 257 259 262 263 262 262 263 263 265 266 265 264 264 263 264 265 269 272 271 270 269 268 268
257 255 254 254 254 254 256 254 255 256 256 257 256 255 255 255 255 256 255 255 255 257 260 261 260 261 261 264 265 267 267 266 263 263 263 265 267 270 270 269 268 268 269
258 256 254 254 254 254 255 257 256 256 255 256 256 255 255 254 254 254 253 254 256 258 258 259 259 260 262 264 266 268 268 268 265 263 265 265 265 267 268 268 268 270 270
259 257 255 254 255 255 256 257 256 255 255 255 255 256 255 254 254 254 254 253 255 256 256 257 259 259 261 263 265 268 269 268 267 265 266 265 264 265 267 267 267 269 270
260 259 257 255 255 256 256 256 255 256 256 255 255 255 254 254 254 252 252 254 254 255 255 258 260 260 260 262 265 268 268 268 267 266 266 263 263 265 266 267 267 270 271